Change the Weather History Date:

Monday, October 7, 2013

  Actual Average Record
Temperature  
Mean Temperature 64 °F -  
Max Temperature 88 °F 82 °F 95 °F (2011)
Min Temperature 41 °F 65 °F 41 °F (2013)
Degree Days  
Heating Degree Days 1    
Growing Degree Days 14 (Base 50)    
Moisture  
Dew Point 50 °F    
Average Humidity 58    
Maximum Humidity 100    
Minimum Humidity 22    
Precipitation  
Precipitation 0.00 in - - ()
Sea Level Pressure  
Sea Level Pressure 30.09 in    
Wind  
Wind Speed 7 mph (NNW)    
Max Wind Speed 13 mph    
Max Gust Speed 18 mph    
Visibility 10 miles    
Events      
Averages and records for this station are not official NWS values.
T = Trace of Precipitation, MM = Missing Value Source: NWS Daily Summary

Daily Weather History Graph

Daily Weather History Graph

Search for Another Location

Airport or City:

Trip Planner

Search our weather history database for the weather conditions in past years. The results will help you decide how hot, cold, wet, or windy it might be!

Date:

Astronomy

Oct. 07, 2013 Rise Set
Actual Time 7:27 AM CDT 7:10 PM CDT
Civil Twilight 7:03 AM CDT 7:33 PM CDT
Nautical Twilight 6:36 AM CDT 8:00 PM CDT
Astronomical Twilight 6:09 AM CDT 8:27 PM CDT
Moon 10:02 AM CDT (10/7) 9:13 PM CDT (10/7)
Length of Visible Light 12h 30m
Length of Day
11h 43m
Waxing Crescent, 9% of the Moon is Illuminated
Oct 7
Waxing Crescent
Oct 11
First Quarter
Oct 18
Full
Oct 26
Last Quarter
Nov 3
New

Hourly Weather History & Observations

Time (CDT) Temp. Windchill Dew Point Humidity Pressure Visibility Wind Dir Wind Speed Gust Speed Precip Events Conditions
12:56 AM 59.0 °F - 52.0 °F 78% 30.10 in - WNW 5.8 mph - N/A   Unknown
1:56 AM 57.0 °F - 51.1 °F 81% 30.09 in - WNW 6.9 mph - N/A   Unknown
2:56 AM 41.0 °F 36.4 °F 41.0 °F 100% 30.09 in - NW 6.9 mph - N/A   Unknown
3:56 AM 57.9 °F - 51.1 °F 78% 30.09 in - WNW 9.2 mph - N/A   Unknown
4:56 AM 57.9 °F - 52.0 °F 81% 30.09 in - NW 8.1 mph - N/A   Unknown
5:56 AM 55.9 °F - 52.0 °F 87% 30.10 in - NW 6.9 mph - N/A   Unknown
6:56 AM 54.0 °F - 51.1 °F 90% 30.10 in 10.0 mi NW 5.8 mph - N/A   Partly Cloudy
7:56 AM 54.0 °F - 52.0 °F 93% 30.12 in 10.0 mi NW 4.6 mph - N/A   Partly Cloudy
8:56 AM 63.0 °F - 55.0 °F 75% 30.14 in 10.0 mi North 6.9 mph - N/A   Partly Cloudy
9:56 AM 72.0 °F - 54.0 °F 53% 30.15 in 10.0 mi NNW 10.4 mph - N/A   Partly Cloudy
10:56 AM 78.1 °F - 54.0 °F 43% 30.16 in 10.0 mi NNW 8.1 mph - N/A   Partly Cloudy
11:56 AM 82.0 °F - 50.0 °F 33% 30.15 in 10.0 mi North 5.8 mph - N/A   Partly Cloudy
12:56 PM 84.0 °F - 48.9 °F 29% 30.13 in 10.0 mi NNW 4.6 mph - N/A   Clear
1:56 PM 86.0 °F - 44.1 °F 23% 30.09 in 10.0 mi NNW 9.2 mph - N/A   Partly Cloudy
2:56 PM 86.0 °F - 43.0 °F 22% 30.07 in 10.0 mi NNW 6.9 mph - N/A   Partly Cloudy
3:56 PM 87.1 °F - 46.0 °F 24% 30.05 in 10.0 mi NNW 11.5 mph 18.4 mph N/A   Clear
4:56 PM 86.0 °F - 46.0 °F 25% 30.03 in 10.0 mi NNE 12.7 mph - N/A   Clear
5:09 PM 87.8 °F - 48.2 °F 25% 30.04 in 10.0 mi North 6.9 mph - N/A   Partly Cloudy
5:56 PM 84.2 °F - 46.4 °F 27% 30.03 in 10.0 mi NE 9.2 mph - N/A   Clear
6:56 PM 79.0 °F - 48.9 °F 35% 30.04 in 10.0 mi East 6.9 mph - N/A   Clear
7:56 PM 70.0 °F - 53.1 °F 55% 30.05 in 10.0 mi SE 5.8 mph - N/A   Clear
8:56 PM 66.9 °F - 55.0 °F 66% 30.06 in 10.0 mi SE 5.8 mph - N/A   Clear
9:56 PM 64.9 °F - 54.0 °F 68% 30.08 in 10.0 mi SE 5.8 mph - N/A   Clear
10:56 PM 63.0 °F - 55.0 °F 75% 30.08 in 10.0 mi SSE 5.8 mph - N/A   Clear
11:56 PM 62.1 °F - 55.0 °F 78% 30.06 in 10.0 mi SSE 4.6 mph - N/A   Clear